Wind_Speed
23 21 19 17 14 12 9 5 2 1 4 8 11 15 18 20 20 20 22 24 27 31 34 36 40 41 37 33 31 29 30 33
24 22 19 19 16 12 9 5 3 1 5 8 11 15 18 18 19 21 24 26 28 31 32 36 39 35 32 30 29 28 27 27
29 25 23 18 15 13 9 5 1 3 5 8 11 15 17 17 19 21 24 27 29 31 33 37 36 33 30 28 26 25 23 23
35 31 26 23 18 12 8 4 2 4 5 7 10 12 13 15 18 21 25 26 27 28 31 35 33 30 28 26 24 21 25 22
37 34 30 26 19 15 10 4 2 3 4 5 10 13 14 16 19 22 24 25 24 24 26 30 31 29 26 24 21 19 18 23
42 37 32 26 21 16 11 6 2 2 5 11 14 14 14 15 17 19 20 20 21 22 24 28 30 28 25 23 22 20 18 18
42 38 32 29 24 19 14 9 2 3 7 11 13 13 12 14 16 17 18 19 20 21 23 25 27 27 25 23 21 19 19 18
47 42 38 33 27 21 17 11 3 3 6 9 10 11 12 14 15 16 17 18 19 20 22 22 23 25 26 24 22 20 19 20
50 45 40 35 27 22 18 12 6 4 7 8 9 10 11 13 14 15 15 16 17 19 20 20 20 22 23 24 24 21 19 19
48 45 40 34 28 23 18 13 9 7 7 9 8 8 10 11 11 12 13 13 14 16 18 19 19 19 20 22 22 24 23 19
45 44 39 32 26 23 20 16 12 7 8 9 7 7 8 10 10 10 10 11 12 13 15 17 18 18 19 19 20 21 22 22
45 43 37 32 28 25 22 18 11 9 9 8 7 7 8 9 9 9 9 10 10 11 14 16 17 18 19 18 18 19 21 23
43 39 37 34 31 27 24 17 14 11 9 8 7 7 8 8 8 8 7 7 7 9 12 14 15 17 18 18 19 20 19 22
39 37 36 35 33 28 24 18 15 11 10 9 7 7 7 6 7 7 6 5 6 8 10 12 15 16 17 18 18 19 19 20
37 36 35 34 32 28 24 20 15 12 11 9 8 7 7 6 5 4 4 3 4 6 8 10 12 14 17 18 17 18 19 21
35 35 33 32 33 30 27 21 16 14 12 9 8 8 7 5 3 2 1 2 4 6 7 8 10 12 16 18 18 17 18 20
33 33 33 35 35 33 27 21 18 15 12 11 10 9 8 5 4 2 0 2 4 5 5 7 9 12 14 16 17 17 17 19
28 31 34 31 33 32 26 20 17 15 13 14 12 11 9 7 5 3 1 2 4 4 5 6 8 11 13 14 16 16 16 17
27 24 24 24 28 29 23 21 18 16 15 14 13 11 10 9 7 5 2 1 2 3 5 7 7 9 11 13 14 14 14 16
Wind_Direction
184 183 182 185 181 173 171 165 184 292 343 349 345 345 340 335 334 335 337 338 339 339 339 338 334 330 327 326 324 321 319 317
188 189 191 192 185 182 178 182 193 348 354 346 337 335 334 335 337 341 341 340 339 339 340 341 337 336 337 335 334 332 331 332
189 192 196 194 195 185 182 178 132 346 331 327 334 336 335 336 338 342 344 343 345 346 345 345 343 340 341 341 339 337 331 335
190 193 194 195 195 186 184 170 25 332 312 320 332 334 336 337 341 345 346 345 345 346 350 351 346 346 344 343 345 340 334 335
195 194 194 195 191 190 184 162 321 279 270 316 343 347 344 344 345 346 344 344 345 348 354 355 353 351 349 348 345 340 330 324
198 198 196 191 193 192 183 188 251 280 341 351 344 340 340 341 342 343 343 344 346 351 353 358 360 356 356 351 346 340 330 320
201 200 192 193 192 193 194 201 229 351 348 332 328 334 334 339 342 342 346 349 354 357 359 1 4 3 0 359 353 345 335 326
199 196 192 196 195 193 199 202 215 328 310 310 324 334 339 341 340 345 350 354 0 2 4 3 6 9 6 2 358 351 345 336
200 195 194 198 195 197 202 205 218 265 288 312 330 332 335 337 339 347 355 359 3 7 5 3 5 8 8 8 3 357 355 347
198 193 198 196 197 201 206 215 224 251 291 307 316 322 329 333 340 350 357 4 6 10 7 7 9 8 9 9 9 9 3 4
193 194 197 197 202 206 209 217 228 249 282 294 299 315 321 329 339 348 355 9 11 10 10 13 14 15 16 14 9 14 13 18
190 194 198 200 205 210 213 222 229 249 270 279 286 306 318 325 335 347 353 10 11 12 15 19 22 22 23 20 16 17 16 23
192 195 201 202 208 212 216 220 230 247 262 265 278 299 311 320 335 341 349 10 4 16 18 20 26 28 29 25 25 20 17 24
193 200 206 206 210 213 218 221 230 243 254 261 275 288 300 311 322 330 345 8 6 16 20 20 28 30 35 29 28 31 25 29
198 205 210 208 213 217 219 225 231 242 250 254 262 277 283 290 303 321 344 1 17 22 23 22 32 34 38 37 33 34 37 38
209 213 215 216 214 215 219 221 230 239 244 251 250 258 264 264 268 292 339 11 31 32 29 29 36 39 40 40 35 38 39 41
218 223 224 222 216 217 219 223 230 238 242 240 239 241 242 235 222 222 308 28 43 44 37 37 35 42 39 40 37 35 42 46
220 227 229 224 219 218 219 223 229 233 233 229 228 227 226 216 208 205 164 47 59 58 53 46 39 45 42 38 36 35 41 51
231 232 235 221 217 214 215 219 226 227 225 221 220 219 217 213 208 208 184 119 81 57 59 51 43 51 45 43 39 35 38 47
Height
1511 1515 1518 1520 1521 1523 1524 1524 1524 1525 1525 1525 1524 1522 1520 1519 1517 1514 1510 1506 1501 1497 1492 1488 1483 1477 1471 1466 1461 1457 1452 1445
1508 1512 1515 1516 1518 1519 1520 1522 1522 1522 1521 1521 1521 1521 1518 1516 1514 1511 1507 1503 1499 1494 1490 1485 1478 1471 1466 1460 1455 1451 1448 1445
1503 1508 1511 1514 1516 1517 1518 1518 1518 1519 1519 1519 1519 1518 1516 1514 1511 1508 1504 1500 1496 1491 1487 1481 1475 1468 1463 1458 1454 1450 1448 1446
1497 1501 1505 1509 1512 1514 1515 1516 1516 1516 1517 1517 1516 1515 1514 1512 1510 1506 1502 1499 1495 1490 1485 1479 1473 1466 1461 1457 1453 1450 1446 1444
1492 1496 1500 1504 1508 1511 1512 1513 1514 1515 1515 1514 1512 1510 1510 1508 1506 1504 1501 1497 1493 1489 1484 1479 1472 1466 1460 1457 1452 1449 1447 1443
1483 1489 1495 1500 1503 1507 1508 1510 1511 1511 1510 1509 1508 1508 1507 1505 1504 1502 1500 1496 1493 1489 1484 1478 1472 1466 1460 1455 1451 1449 1446 1443
1479 1485 1492 1495 1499 1502 1505 1506 1507 1506 1506 1507 1508 1506 1505 1503 1502 1501 1498 1494 1490 1486 1482 1478 1471 1465 1460 1454 1451 1448 1444 1440
1470 1477 1485 1490 1493 1497 1501 1502 1503 1504 1505 1506 1505 1504 1502 1501 1500 1498 1495 1492 1487 1484 1480 1476 1472 1466 1461 1456 1451 1447 1442 1437
1461 1470 1478 1484 1490 1494 1497 1499 1500 1502 1504 1503 1502 1502 1500 1499 1498 1496 1493 1490 1486 1483 1479 1476 1471 1467 1462 1457 1453 1447 1441 1436
1457 1466 1473 1480 1486 1490 1494 1496 1498 1500 1500 1500 1500 1500 1499 1498 1496 1493 1491 1488 1486 1483 1480 1476 1471 1467 1462 1458 1454 1448 1442 1436
1455 1464 1470 1477 1483 1488 1490 1493 1495 1496 1498 1497 1498 1498 1497 1495 1494 1491 1489 1485 1484 1483 1480 1476 1472 1467 1463 1459 1455 1450 1445 1437
1451 1460 1468 1473 1479 1483 1487 1489 1491 1493 1493 1494 1496 1495 1495 1494 1492 1490 1488 1485 1483 1483 1480 1476 1472 1468 1463 1459 1456 1451 1447 1441
1451 1458 1463 1469 1474 1479 1483 1485 1488 1489 1490 1491 1492 1492 1492 1492 1490 1488 1486 1485 1484 1482 1479 1476 1473 1468 1465 1461 1457 1453 1449 1444
1449 1454 1459 1465 1471 1476 1480 1482 1484 1485 1487 1488 1490 1490 1490 1489 1488 1488 1487 1484 1484 1482 1479 1477 1473 1469 1466 1463 1459 1455 1452 1447
1446 1450 1455 1461 1467 1472 1476 1479 1480 1482 1484 1485 1486 1487 1488 1488 1487 1486 1487 1485 1483 1481 1479 1477 1474 1471 1469 1466 1462 1458 1454 1450
1443 1446 1451 1456 1461 1466 1470 1473 1476 1479 1480 1481 1483 1485 1487 1486 1487 1486 1486 1485 1482 1481 1480 1478 1475 1473 1470 1468 1465 1462 1458 1454
1438 1441 1445 1447 1453 1458 1465 1469 1473 1476 1477 1479 1480 1481 1484 1484 1485 1485 1485 1484 1483 1482 1481 1479 1476 1474 1472 1470 1468 1465 1462 1458
1431 1433 1436 1441 1447 1453 1459 1465 1468 1471 1473 1476 1477 1480 1481 1482 1483 1484 1483 1484 1483 1483 1482 1479 1477 1475 1474 1472 1469 1467 1465 1461
1426 1429 1432 1437 1443 1450 1456 1461 1464 1467 1470 1472 1474 1476 1479 1480 1482 1482 1483 1484 1484 1483 1482 1480 1478 1477 1476 1474 1472 1470 1468 1464